Voltar ao catálogo

COSMOS 2251 DEB

LostLEO
NORAD 37343·DEBRIS·🇷🇺 Russia

Lançado Jun 16, 1993 de Plesetsk Cosmodrome

Loading…

Próximas Passagens (próximas 24 horas)

TLE

ObsoletoSource: Space-Track

Época: Dec 30, 2024, 08:37 UTC

1 37343U 93036BLK 24365.35958354  .00012835  00000-0  30957-2 0  9998
2 37343  74.0165 232.1627 0090322 301.1445  58.0880 14.50759796 37307

Acompanhe COSMOS 2251 DEB em tempo real com AllMySat

Download on the App Store